Погода в Болгаре

Россия / Республика Татарстан     54°58′29″N   49°01′49″E
темп.,
°C
ветер,
м/с
пор.,
м/с
влажн.,
%
обл.,
%
осадки,
мм/ч
давл.,
гПа
погр.,
м
8 мая, сб
сб800:00+9зсз4495100 0.6 101553
03:00+8ссз6895100 1.0 1016107
06:00+7св469799 0.3 101784
09:00+7ссв239898 1.1 101767
12:00+8с229586 0.0 1017121
15:00+7вюв339385 0.1 1016135
18:00+7св4496100 0.0 101559
21:00+7всв459786 0.1 101448
9 мая, вс
вс900:00+8в3386100 0.0 101338
03:00+9ююв448172 0.0 101234
06:00+9ююв348523 0.0 101342
09:00+12ю587099 0.0 1013109
12:00+14ю6961100 0.0 1013148
15:00+14ю5668100 0.0 101263
18:00+15ююв576956 0.0 101259
21:00+13ю337964 0.1 101317
10 мая, пн
пн1000:00+11з2292100 0.6 101512
03:00+10с5698100 0.9 101649
06:00+10с6989100 0.0 101899
09:00+10ссз6886100 0.0 1020110
12:00+11ссз6783100 0.0 1022134
15:00+11с688099 0.0 1023139
18:00+10с6983100 0.0 1024121
21:00+9ссв6988100 0.0 1027144
11 мая, вт
вт1100:00+8ссв6989100 0.0 1027133
03:00+8ссв7119497 0.0 1028209
06:00+7св71091100 0.0 1029203
09:00+8св6991100 0.0 1030172
12:00+9св6890100 0.0 1030160
15:00+10св5784100 0.0 1029144
18:00+11ссв457980 0.0 102944
21:00+10св447876 0.0 103036
12 мая, ср
ср1200:00+9св57835 0.0 103057
03:00+8св46820 0.0 103052
06:00+8св46785 0.0 103164
09:00+10св56765 0.0 103090
12:00+10св567320 0.0 1030147
15:00+11св56705 0.0 1029140
18:00+12св44692 0.0 102835
21:00+12всв44731 0.0 102827